Zurück zum Katalog

STARLINK-32344

AktivKommunikationVLEO
NORAD 61719·PAYLOAD·🇺🇸 United States

Gestartet Oct 30, 2024 von Cape Canaveral Space Force Station

Loading…

Nächste Überflüge (nächste 24 Stunden)

TLE

AktuellSource: CelesTrak SupGP

Epoche: Sep 14, 2026, 23:00 UTC

1 61719C 24196N   26257.95881944  .00048503  00000+0  14335-2 0  2570
2 61719  53.1589 299.7432 0001150  83.0376 119.4218 15.34357281    13

Verfolge STARLINK-32344 in Echtzeit mit AllMySat

Download on the App Store